CAPE
0 0 0 0 0 0 1 21 251 267 181 164 102 85 983 808 1471 1018 620 244 445 360 52 10 0 0 0 0 14 80 127 73
0 0 0 0 0 0 18 172 209 258 286 92 253 650 670 986 1437 987 486 174 512 253 33 19 20 13 15 20 12 27 18 0
0 0 0 0 0 0 1 303 385 320 269 226 221 479 1037 1230 1248 836 417 146 472 250 70 48 50 21 7 17 39 58 34 7
0 0 0 0 0 0 0 149 426 296 250 135 152 704 1206 1502 896 784 482 338 386 295 167 52 60 50 28 22 12 0 0 0
0 0 0 0 0 0 0 7 343 311 306 340 251 987 1266 1398 1420 850 758 460 349 197 244 139 46 27 46 19 0 5 0 0
0 0 0 0 0 6 2 0 315 356 342 224 220 1068 986 1192 1450 932 1031 695 435 414 155 184 224 99 59 71 79 0 0 0
0 0 0 0 0 0 0 407 130 374 860 852 542 1114 1045 850 1171 931 1024 980 721 319 357 180 163 262 152 150 122 112 25 0
0 0 0 0 0 0 5 497 605 818 936 1035 880 1302 1364 809 544 517 724 919 889 743 560 462 296 299 295 259 302 327 267 226
0 0 0 0 0 0 10 531 667 649 1198 1033 989 1355 1441 1066 592 467 678 782 908 1057 1068 687 494 515 357 312 446 551 548 522
0 0 0 0 0 0 44 671 485 237 1211 945 1111 1452 1521 1297 967 578 451 493 795 1019 1121 1044 934 804 719 404 501 424 464 669
0 0 0 0 0 0 0 0 0 0 754 932 1141 1361 1353 1375 1060 820 510 515 680 954 991 1001 993 1042 968 820 651 599 598 604
0 0 0 0 0 0 0 0 0 0 449 1078 1101 882 710 1166 1238 904 765 719 743 791 1022 871 958 1281 1113 1035 995 814 633 581
0 0 0 0 0 0 0 0 0 0 4 1147 1362 642 339 728 1402 1355 1087 952 807 834 967 727 843 1072 990 905 1069 879 737 729
0 0 0 0 0 0 0 0 0 0 0 0 1101 1283 887 591 625 1272 1300 1143 1015 801 787 809 859 1171 1019 974 916 915 947 852
0 0 0 0 0 0 0 0 0 0 0 0 0 457 1268 1235 1011 753 807 1018 1121 1008 884 797 839 973 1023 1007 945 935 946 885
0 0 0 0 0 0 0 0 0 0 0 0 0 0 0 19 113 163 287 946 1281 1174 1060 1005 744 720 730 659 599 790 634 700
0 0 0 0 0 0 0 0 0 0 0 0 0 0 0 0 0 0 0 511 850 1179 1239 999 862 500 404 404 681 1011 762 723
0 0 0 0 0 0 0 0 0 0 0 0 0 0 0 0 0 0 0 0 330 543 1092 1107 1046 832 738 751 1224 1262 1126 976
0 0 0 0 0 0 0 0 0 0 0 0 0 0 0 0 0 0 0 0 0 531 1007 1052 1113 1087 1117 1352 1188 1220 1236 1326
0 0 0 0 0 0 0 0 0 0 0 0 0 0 0 0 0 0 0 0 0 24 1244 1214 1167 1215 1213 1113 1207 1379 1633 1679
CIN
0 0 0 0 0 0 -18 -213 -205 -203 -292 -246 -242 -337 -152 -209 -152 -192 -285 -385 -342 -369 -551 -581 0 0 0 0 -409 -338 -315 -360
0 0 0 0 0 0 -55 -259 -308 -240 -155 -397 -406 -242 -278 -212 -173 -205 -276 -402 -321 -394 -528 -534 -488 -512 -464 -414 -395 -400 -405 -29
0 0 0 0 0 0 -32 -173 -201 -244 -173 -238 -450 -366 -258 -206 -195 -213 -289 -395 -292 -378 -477 -483 -455 -484 -470 -420 -384 -359 -405 -446
0 0 0 0 0 0 0 -201 -215 -191 -190 -285 -546 -304 -258 -195 -247 -222 -279 -313 -304 -363 -417 -494 -449 -442 -438 -427 -418 0 0 0
0 0 0 0 0 0 0 -120 -175 -252 -125 -255 -389 -295 -270 -243 -193 -243 -243 -294 -325 -376 -364 -412 -484 -466 -419 -430 0 -187 0 0
0 0 0 0 0 -355 -242 0 -285 -242 -113 -145 -346 -301 -300 -263 -207 -262 -217 -269 -336 -332 -389 -371 -324 -411 -416 -378 -370 0 0 0
0 0 0 0 0 0 0 -193 -276 -209 -157 -217 -356 -304 -284 -319 -256 -287 -255 -255 -298 -367 -336 -371 -346 -317 -355 -336 -336 -320 -181 0
0 0 0 0 0 0 -23 -121 -98 -92 -225 -278 -313 -258 -215 -276 -318 -354 -321 -270 -261 -292 -321 -321 -335 -299 -278 -274 -265 -246 -249 -244
0 0 0 0 0 0 -47 -60 -46 -31 -105 -227 -279 -246 -188 -228 -275 -307 -309 -288 -272 -256 -251 -287 -305 -275 -285 -295 -249 -223 -201 -201
0 0 0 0 0 0 -39 -27 -38 -119 -100 -211 -236 -213 -193 -210 -233 -308 -341 -338 -326 -294 -272 -258 -228 -258 -248 -311 -276 -246 -236 -193
0 0 0 0 0 0 0 0 0 0 -109 -147 -210 -194 -228 -221 -240 -272 -291 -334 -365 -343 -333 -307 -281 -241 -250 -270 -276 -247 -248 -205
0 0 0 0 0 0 0 0 0 0 -71 -66 -127 -199 -262 -239 -220 -254 -279 -303 -328 -373 -350 -369 -318 -251 -254 -253 -231 -251 -243 -222
0 0 0 0 0 0 0 0 0 0 -90 -71 -91 -186 -195 -206 -174 -206 -238 -278 -308 -342 -360 -383 -336 -298 -287 -292 -226 -239 -226 -225
0 0 0 0 0 0 0 0 0 0 0 0 -65 -94 -138 -181 -199 -200 -243 -254 -288 -311 -347 -364 -354 -297 -277 -266 -252 -227 -210 -215
0 0 0 0 0 0 0 0 0 0 0 0 0 -113 -107 -139 -151 -194 -212 -249 -273 -302 -302 -334 -342 -300 -270 -257 -234 -210 -205 -198
0 0 0 0 0 0 0 0 0 0 0 0 0 0 0 -108 -374 -359 -368 -323 -296 -280 -290 -301 -316 -338 -295 -271 -236 -215 -216 -202
0 0 0 0 0 0 0 0 0 0 0 0 0 0 0 0 0 0 -2 -277 -310 -275 -278 -307 -311 -257 -242 -223 -211 -187 -193 -194
0 0 0 0 0 0 0 0 0 0 0 0 0 0 0 0 0 0 0 0 -275 -293 -306 -331 -310 -274 -240 -230 -174 -151 -160 -183
0 0 0 0 0 0 0 0 0 0 0 0 0 0 0 0 0 0 0 0 0 -277 -277 -346 -348 -314 -316 -242 -239 -155 -194 -153
0 0 0 0 0 0 0 0 0 0 0 0 0 0 0 0 0 0 0 0 0 -20 -305 -283 -350 -306 -253 -156 -107 -108 -109 -99
Wind_Speed
12 12 11 12 12 16 14 10 9 11 12 16 17 16 17 24 28 14 7 16 18 21 20 19 18 18 17 17 16 16 17 17
12 12 11 12 15 15 12 9 9 11 14 15 16 16 21 26 29 8 9 14 20 22 18 18 16 16 15 14 15 15 15 14
11 10 11 14 16 14 8 10 9 9 14 16 15 15 19 23 24 7 8 11 19 14 15 14 14 14 13 14 14 14 14 14
10 8 14 18 18 14 4 6 8 10 14 15 14 12 14 16 14 14 6 4 8 11 13 12 9 11 12 13 13 13 12 12
8 8 12 17 19 10 9 2 7 12 16 15 11 10 12 11 9 8 9 9 9 13 9 7 8 11 11 12 12 11 10 9
9 9 12 16 16 16 10 5 11 9 17 17 10 8 9 8 8 3 4 4 7 6 7 8 8 9 9 9 9 9 8 8
10 10 13 17 17 14 13 10 6 7 12 16 9 9 9 7 3 2 4 4 4 5 5 6 5 8 7 7 6 6 6 6
11 12 17 22 17 20 11 7 6 11 13 12 9 11 9 6 2 3 5 5 5 3 2 2 3 4 5 4 3 3 5 6
11 13 18 21 20 15 12 10 10 11 10 7 10 12 5 2 4 3 7 6 3 3 4 3 2 1 1 2 2 3 3 5
14 13 14 18 20 18 10 15 11 16 8 4 6 9 5 2 1 4 5 5 5 3 7 6 5 2 1 0 3 4 5 5
15 18 15 17 17 17 17 16 19 15 8 6 2 1 5 5 7 5 5 6 5 6 6 7 8 6 6 5 6 6 6 5
18 17 14 14 15 11 15 20 23 18 13 5 4 4 6 5 6 8 10 9 8 7 6 7 8 9 9 8 7 7 6 6
16 16 16 12 14 12 15 15 16 20 18 13 6 7 4 5 7 8 9 10 6 6 6 7 7 8 10 10 9 9 8 7
18 16 16 14 19 15 16 17 17 16 17 16 12 9 12 11 11 17 14 7 7 7 7 8 9 12 15 14 13 12 10 10
18 14 15 15 19 16 18 23 25 20 20 21 21 19 13 14 15 19 16 14 9 9 9 11 17 18 20 20 18 17 16 14
15 13 18 16 19 19 21 21 20 17 18 22 24 25 27 30 27 25 24 23 20 17 16 15 18 21 23 22 22 20 19 17
17 14 16 14 17 18 16 16 15 14 16 18 21 24 25 27 30 27 26 26 26 25 22 17 14 14 18 18 19 20 19 18
19 13 10 13 14 14 15 15 15 13 15 17 19 22 24 25 26 28 28 23 24 25 22 19 17 15 16 15 17 20 19 19
18 13 14 12 13 13 15 14 15 16 17 18 20 22 24 25 25 27 30 32 31 26 22 20 19 17 17 16 19 19 19 18
17 16 21 14 22 15 13 15 17 19 20 22 23 24 25 26 27 28 31 33 36 32 23 21 19 18 16 15 17 17 18 17
Wind_Direction
306 303 298 307 327 323 329 6 47 49 33 35 30 53 66 119 129 206 135 119 121 123 119 114 111 105 102 97 92 88 86 85
303 306 303 309 323 323 338 14 42 31 15 32 20 63 122 122 131 123 121 118 126 127 120 117 111 105 100 96 93 93 89 80
305 310 310 305 312 324 333 342 38 58 18 21 43 75 104 121 126 127 120 117 125 121 119 115 113 108 103 99 95 89 84 81
306 309 303 299 299 308 350 12 26 26 340 5 59 66 87 109 108 120 141 159 123 120 119 119 113 107 106 101 98 94 89 78
304 317 316 306 297 308 314 13 351 343 322 341 27 60 79 92 101 117 124 127 127 124 123 122 119 115 112 108 102 95 82 73
298 309 315 317 307 301 314 328 326 348 324 324 17 75 77 80 104 140 147 150 131 129 127 124 121 120 116 109 101 94 84 69
291 305 311 312 310 322 316 324 341 8 350 349 43 89 88 79 97 205 229 171 150 140 134 128 124 123 119 113 99 81 68 53
297 305 303 296 311 299 326 343 340 332 339 9 73 108 105 91 135 201 226 235 242 223 180 180 120 117 121 105 65 38 55 48
305 307 304 300 300 321 319 317 321 320 336 24 99 121 102 69 121 178 254 254 232 236 247 217 241 275 314 313 327 348 8 12
313 318 315 305 303 301 319 310 327 313 343 23 115 122 106 88 116 239 243 244 258 220 262 262 270 250 276 332 311 320 324 342
310 305 308 308 299 299 299 298 302 314 323 306 147 22 321 305 293 285 259 256 249 255 253 265 267 276 278 295 297 306 319 330
305 303 310 311 304 305 300 289 285 299 300 291 229 283 306 295 285 281 281 276 264 260 248 265 267 272 275 289 293 300 308 317
307 304 303 309 301 299 301 302 301 296 299 297 267 272 257 278 269 283 281 286 249 243 252 254 250 261 276 284 289 293 301 308
304 303 303 300 294 301 301 299 296 298 303 300 288 263 277 285 281 280 282 258 260 258 246 247 259 270 277 280 285 290 297 305
307 310 312 301 303 305 306 300 294 289 292 295 293 290 281 279 280 278 276 278 264 260 258 266 272 274 276 278 285 289 294 301
309 308 311 307 302 312 314 314 306 302 296 295 292 291 288 281 281 280 278 277 276 278 281 280 278 274 276 275 282 288 290 296
309 307 310 312 306 316 328 336 330 316 314 309 301 296 299 290 282 283 279 276 276 279 279 279 279 273 275 274 278 288 290 292
307 311 305 314 315 320 327 335 342 337 328 320 314 311 307 305 293 283 282 281 278 277 278 273 273 273 280 277 284 289 294 293
301 308 309 312 305 308 322 331 335 335 334 332 326 318 315 313 307 297 287 281 279 277 274 271 269 270 279 282 285 290 294 294
306 295 288 298 290 297 307 312 318 321 322 322 322 321 318 313 312 306 298 288 279 278 275 266 259 261 257 265 272 279 291 293